This is the latest recevied weather packets stored in our database for station/object DO1MIT-10. If no packets are shown the sender has not sent any weather packets the latest 10 day(s).
| Time | Temp. | Humidity | Pressure | Rain* | Wind** | Luminosity | Snow |
|---|---|---|---|---|---|---|---|
| 1777679376 | 6.67° C | 69% | 1028.1 hPa | - | - | - | - |
| 1777678476 | 6.67° C | 68% | 1028.2 hPa | - | - | - | - |
| 1777677576 | 6.67° C | 68% | 1028.2 hPa | - | - | - | - |
| 1777676676 | 7.22° C | 67% | 1028.2 hPa | - | - | - | - |
| 1777675776 | 7.22° C | 66% | 1028.3 hPa | - | - | - | - |
| 1777674876 | 7.22° C | 66% | 1028.3 hPa | - | - | - | - |
| 1777673976 | 7.78° C | 65% | 1028.4 hPa | - | - | - | - |
| 1777673076 | 7.78° C | 64% | 1028.5 hPa | - | - | - | - |
| 1777672175 | 8.33° C | 63% | 1028.4 hPa | - | - | - | - |
| 1777671275 | 8.33° C | 62% | 1028.4 hPa | - | - | - | - |
| 1777670375 | 8.33° C | 62% | 1028.3 hPa | - | - | - | - |
| 1777669475 | 8.89° C | 61% | 1028.3 hPa | - | - | - | - |
| 1777668575 | 8.89° C | 59% | 1028.5 hPa | - | - | - | - |
| 1777667675 | 9.44° C | 59% | 1028.5 hPa | - | - | - | - |
| 1777666775 | 10° C | 58% | 1028.6 hPa | - | - | - | - |
| 1777665875 | 10.56° C | 57% | 1028.6 hPa | - | - | - | - |
| 1777664975 | 10.56° C | 56% | 1028.5 hPa | - | - | - | - |
| 1777664075 | 11.11° C | 54% | 1028.6 hPa | - | - | - | - |
| 1777663174 | 11.67° C | 53% | 1028.5 hPa | - | - | - | - |
| 1777662274 | 12.22° C | 52% | 1028.5 hPa | - | - | - | - |
| 1777661374 | 12.78° C | 51% | 1028.4 hPa | - | - | - | - |
| 1777660474 | 13.33° C | 50% | 1028.3 hPa | - | - | - | - |
| 1777659574 | 13.89° C | 48% | 1028.4 hPa | - | - | - | - |
| 1777658674 | 14.44° C | 47% | 1028.3 hPa | - | - | - | - |
| 1777657774 | 15.56° C | 47% | 1028.4 hPa | - | - | - | - |
* Rain since midnight (hover to see other rain measurements)
** Current wind speed in m/s (hover to see current wind gust speed)